星链-31062 (STARLINK-31062 )

导读

STARLINK-31062是美国SpaceX公司“星链”星座中的一员,于2023年12月19日发射入轨。作为低轨宽带通信卫星,它采用平板设计,搭载Ku/Ka波段相控阵通信载荷,配备氪工质霍尔推进器,具备自主避撞能力。星链星座旨在提供全球宽带互联网服务,该卫星服役寿命约5-7年,退役后将受控再入大气层烧毁。

Basic Information
目录编号:
58590
目录名称:
STARLINK-31062
国际标识:
2023-200B
轨道中心:
EARTH
卫星名称:
星链-31062
卫星全名:
星链-31062 (STARLINK-31062 )
卫星状态:
在轨 (已飞行912 天)
发射日期:
2023-12-19 UTC
国别 :
美国 (US)
星等 :
--
Orbit Information
数据来源 国际轨道数据
星历时间: 2026-06-17T21:04:19+0800
19小时前
查看轨道信息
半长轴: 6861.196km
偏心率: 0.0001204
轨道倾角: 43.004°
近地点辐角 268.897°
升交点赤经 328.227°
平近点角 91.175°
近地点: 482.232km
远地点: 483.886km
周期: 94.267分钟
每日圈数: 15.275768
Detailed Information
固有亮度:
5
最大亮度:
0.3
卫星平台:
Starlink v2.0 mini
覆盖范围:
全球
运营商:
太空探索技术公司
运营商所在国:
美国
制造商(研发单位):
太空探索技术公司
制造商所在国:
美国
使用方式:
暂无
Satellite Introduction
星链(Starlink)计划是由太空探索技术公司(SpaceX)提出的一个巨型低轨卫星互联网星座项目,计划在2019年至2024年间在太空搭建由约1.2万颗卫星组成的“星链”网络,其中1584颗将部署在地球上空550千米处的近地轨道,并从2020年开始工作。该卫星仍在工作。
2D Orbit Map
3D Orbit Map
Orbit Altitude Analysis Chart
Orbit Inclination Analysis Chart
Orbit Comprehensive Analysis Chart
View Comprehensive Chart